Pagina principale
METAR-TAF:

METAR-TAF

Aeroporti :

Lawrence Municipal Airport

Lawrence, Massachusetts, Stati Uniti

latitudine: 42-42-47N, longitudine: 071-07-33W, altezza: 45 m

Osservazione

Il bollettino è stato emesso 35 minuti fa, alle 04:54 UTC
Vento 4 kt da ovest/nord-ovest
Temperature -7°C
Umidità 48%
Pressione 1035 hPa
Visibilità: 16.1 km
Cielo sereno

METAR: KLWM 200454Z AUTO 29004KT 10SM CLR M07/M16 A3057 RMK AO2 SLP354 T10721156 410221106

Ora: 00:29 (05:29 UTC)


TAF: mancante

Osservazioni e previsioni meteorologiche di più di 4000 aeroporti (messaggi METAR e TAF).

Le stazioni disponibili sono rappresentate dai dischi gialli e rossi sulla carta.

Puntare il mouse per vedere il nome della stazione.

Clicca sopra per visualizzare le osservazioni e previsioni meteorologiche.

Per cambiare la mappa : fare clic sui pulsanti verdi con una croce nera per ingrandire, il pulsante verde con un trattino per diminuire, o sulla freccia verde per le mappe adiacenti.


METAR-TAF: